TimePST,TemperatureF,Dew PointF,Humidity,Sea Level PressureIn,VisibilityMPH,Wind Direction,Wind SpeedMPH,Gust SpeedMPH,PrecipitationIn,Events,Conditions,WindDirDegrees,DateUTC
12:10 AM,44.6,42.8,93,30.25,4.0,Calm,Calm,-,N/A,,Mostly Cloudy,0,2013-02-03 08:10:00
12:39 AM,44.6,42.8,93,30.24,3.0,Calm,Calm,-,N/A,,Mostly Cloudy,0,2013-02-03 08:39:00
12:48 AM,44.6,42.8,93,30.24,3.0,Calm,Calm,-,N/A,,Mostly Cloudy,0,2013-02-03 08:48:00
12:53 AM,45.0,43.0,93,30.25,3.0,Calm,Calm,-,N/A,,Overcast,0,2013-02-03 08:53:00
1:16 AM,46.4,44.6,93,30.24,3.0,Calm,Calm,-,N/A,,Overcast,0,2013-02-03 09:16:00
1:53 AM,48.0,46.0,93,30.24,4.0,Calm,Calm,-,N/A,,Overcast,0,2013-02-03 09:53:00
2:00 AM,48.2,46.4,93,30.24,4.0,Calm,Calm,-,N/A,,Overcast,0,2013-02-03 10:00:00
2:53 AM,46.9,45.0,93,30.25,5.0,Calm,Calm,-,N/A,,Overcast,0,2013-02-03 10:53:00
3:53 AM,46.9,45.0,93,30.23,7.0,SW,5.8,-,N/A,,Overcast,220,2013-02-03 11:53:00
4:23 AM,46.4,44.6,93,30.23,10.0,WSW,6.9,-,N/A,,Overcast,240,2013-02-03 12:23:00
4:48 AM,46.4,44.6,93,30.22,6.0,SW,5.8,-,N/A,,Overcast,230,2013-02-03 12:48:00
4:53 AM,46.9,45.0,93,30.22,6.0,WSW,5.8,-,N/A,,Overcast,240,2013-02-03 12:53:00
5:22 AM,46.4,44.6,93,30.22,7.0,West,4.6,-,N/A,,Overcast,260,2013-02-03 13:22:00
5:53 AM,46.9,44.1,90,30.23,8.0,West,4.6,-,N/A,,Overcast,270,2013-02-03 13:53:00
6:53 AM,46.9,44.1,90,30.25,10.0,WSW,4.6,-,N/A,,Overcast,240,2013-02-03 14:53:00
7:53 AM,46.9,43.0,86,30.24,10.0,Calm,Calm,-,N/A,,Mostly Cloudy,0,2013-02-03 15:53:00
8:53 AM,48.0,42.1,80,30.25,10.0,WSW,3.5,-,N/A,,Mostly Cloudy,250,2013-02-03 16:53:00
9:53 AM,48.9,42.1,77,30.25,10.0,WSW,4.6,-,N/A,,Overcast,240,2013-02-03 17:53:00
9:54 AM,48.2,42.8,82,30.25,10.0,WSW,4.6,-,N/A,,Overcast,240,2013-02-03 17:54:00
9:55 AM,48.2,42.8,82,30.25,10.0,WSW,4.6,-,N/A,,Overcast,240,2013-02-03 17:55:00
10:53 AM,50.0,43.0,77,30.26,10.0,Calm,Calm,-,N/A,,Mostly Cloudy,0,2013-02-03 18:53:00
11:30 AM,51.8,42.8,71,30.23,10.0,South,4.6,-,N/A,,Scattered Clouds,170,2013-02-03 19:30:00
11:53 AM,52.0,43.0,71,30.22,10.0,WSW,4.6,-,N/A,,Clear,240,2013-02-03 19:53:00
12:53 PM,54.0,43.0,66,30.18,10.0,SW,4.6,-,N/A,,Clear,220,2013-02-03 20:53:00
1:53 PM,55.9,43.0,62,30.16,10.0,Calm,Calm,-,N/A,,Clear,0,2013-02-03 21:53:00
2:53 PM,59.0,43.0,55,30.15,10.0,Calm,Calm,-,N/A,,Clear,0,2013-02-03 22:53:00
3:53 PM,59.0,44.1,58,30.14,10.0,Calm,Calm,-,N/A,,Clear,0,2013-02-03 23:53:00
4:53 PM,59.0,44.1,58,30.13,10.0,Calm,Calm,-,N/A,,Clear,0,2013-02-04 00:53:00
5:53 PM,54.0,45.0,72,30.14,10.0,WNW,6.9,-,N/A,,Clear,290,2013-02-04 01:53:00
6:53 PM,51.1,44.1,77,30.14,10.0,NW,6.9,-,N/A,,Clear,310,2013-02-04 02:53:00
7:53 PM,46.9,43.0,86,30.16,10.0,West,4.6,-,N/A,,Clear,280,2013-02-04 03:53:00
8:53 PM,48.0,43.0,83,30.16,10.0,Calm,Calm,-,N/A,,Clear,0,2013-02-04 04:53:00
9:53 PM,46.0,42.1,86,30.17,10.0,Calm,Calm,-,N/A,,Clear,0,2013-02-04 05:53:00
10:53 PM,44.1,41.0,89,30.17,10.0,NNE,3.5,-,N/A,,Clear,30,2013-02-04 06:53:00
11:53 PM,43.0,39.0,86,30.16,10.0,Calm,Calm,-,N/A,,Clear,0,2013-02-04 07:53:00